| time (UTC) | temp F | wind direction | speed MPH | gust MPH | rain 1hr in | rain 24hr in | rain mn in | humidity % | barometer mb |
| 20260903102309 | 73 | 213 | 1.0 | 1.0 | 0.00 | 0.00 | 0.00 | 99 | 4252.9 |
| 20260903101304 | 73 | 210 | 1.0 | 1.0 | 0.00 | 0.00 | 0.00 | 99 | 4253.0 |
| 20260903100259 | 73 | 215 | 0.0 | 1.0 | 0.00 | 0.00 | 0.00 | 99 | 4252.8 |
| 20260903095257 | 73 | 213 | 1.0 | 1.0 | 0.00 | 0.00 | 0.00 | 99 | 4252.8 |
| 20260903094253 | 73 | 226 | 1.0 | 1.0 | 0.00 | 0.00 | 0.00 | 99 | 4252.9 |
| 20260903093249 | 73 | 215 | 1.0 | 2.0 | 0.00 | 0.00 | 0.00 | 99 | 4252.7 |
| 20260903092244 | 73 | 214 | 1.0 | 1.0 | 0.00 | 0.00 | 0.00 | 99 | 4252.8 |
| 20260903091243 | 73 | 224 | 1.0 | 1.0 | 0.00 | 0.00 | 0.00 | 99 | 4252.7 |
| 20260903090238 | 73 | 204 | 1.0 | 1.0 | 0.00 | 0.00 | 0.00 | 99 | 4252.7 |
| 20260903085232 | 74 | 224 | 1.0 | 1.0 | 0.00 | 0.00 | 0.00 | 99 | 4252.7 |
| 20260903084231 | 74 | 225 | 1.0 | 1.0 | 0.00 | 0.00 | 0.00 | 99 | 4252.7 |
| 20260903083226 | 74 | 217 | 1.0 | 1.0 | 0.00 | 0.00 | 0.00 | 99 | 4252.9 |
| 20260903082222 | 74 | 215 | 1.0 | 1.0 | 0.00 | 0.00 | 0.00 | 99 | 4252.5 |
| 20260903081218 | 75 | 209 | 0.0 | 0.0 | 0.00 | 0.00 | 0.00 | 99 | 4252.6 |
| 20260903080217 | 75 | 223 | 1.0 | 1.0 | 0.00 | 0.00 | 0.00 | 99 | 4252.6 |
| 20260903075217 | 75 | 219 | 1.0 | 1.0 | 0.00 | 0.00 | 0.00 | 99 | 4252.5 |
| 20260903074217 | 75 | 212 | 1.0 | 1.0 | 0.00 | 0.00 | 0.00 | 99 | 4252.6 |
| 20260903073213 | 75 | 210 | 1.0 | 1.0 | 0.00 | 0.00 | 0.00 | 99 | 4252.5 |
| 20260903072211 | 75 | 218 | 0.0 | 0.0 | 0.00 | 0.00 | 0.00 | 99 | 4252.6 |
| 20260903071208 | 75 | 217 | 1.0 | 2.0 | 0.00 | 0.00 | 0.00 | 99 | 4252.6 |
| 20260903070204 | 75 | 222 | 1.0 | 1.0 | 0.00 | 0.00 | 0.00 | 99 | 4252.5 |
| 20260903065204 | 76 | 212 | 1.0 | 1.0 | 0.00 | 0.00 | 0.00 | 99 | 4252.6 |
| 20260903064159 | 76 | 218 | 1.0 | 1.0 | 0.00 | 0.00 | 0.00 | 99 | 4252.6 |
| 20260903063155 | 76 | 213 | 1.0 | 1.0 | 0.00 | 0.00 | 0.00 | 98 | 4252.8 |
| 20260903062152 | 76 | 215 | 1.0 | 1.0 | 0.00 | 0.00 | 0.00 | 98 | 4252.7 |
| 20260903061146 | 76 | 222 | 1.0 | 2.0 | 0.00 | 0.00 | 0.00 | 97 | 4252.9 |
| 20260903060142 | 77 | 211 | 0.0 | 0.0 | 0.00 | 0.00 | 0.00 | 98 | 4252.9 |
| 20260903055138 | 77 | 220 | 0.0 | 1.0 | 0.00 | 0.00 | 0.00 | 96 | 4253.0 |
| 20260903054135 | 77 | 221 | 1.0 | 1.0 | 0.00 | 0.00 | 0.00 | 97 | 4252.8 |
| 20260903053132 | 77 | 215 | 1.0 | 1.0 | 0.00 | 0.00 | 0.00 | 97 | 4252.9 |
| 20260903052129 | 77 | 219 | 0.0 | 1.0 | 0.00 | 0.00 | 0.00 | 96 | 4252.9 |
| 20260903051125 | 77 | 214 | 0.0 | 1.0 | 0.00 | 0.00 | 0.00 | 96 | 4252.9 |
| 20260903050120 | 78 | 211 | 0.0 | 1.0 | 0.00 | 0.00 | 0.00 | 95 | 4252.9 |
| 20260903045116 | 78 | 229 | 0.0 | 1.0 | 0.00 | 0.00 | 0.00 | 97 | 4252.8 |
| 20260903044113 | 78 | 215 | 1.0 | 1.0 | 0.00 | 0.00 | 0.00 | 95 | 4252.7 |
| 20260903043108 | 78 | 209 | 0.0 | 1.0 | 0.00 | 0.00 | 0.00 | 94 | 4252.7 |
| 20260903042104 | 78 | 216 | 0.0 | 1.0 | 0.00 | 0.00 | 0.00 | 93 | 4252.8 |
| 20260903041101 | 79 | 214 | 0.0 | 1.0 | 0.00 | 0.00 | 0.00 | 92 | 4252.9 |
| 20260903040057 | 79 | 214 | 1.0 | 1.0 | 0.00 | 0.00 | 0.00 | 92 | 4252.7 |
| 20260903035054 | 79 | 217 | 1.0 | 1.0 | 0.00 | 0.00 | 0.00 | 91 | 4252.8 |
| 20260903034049 | 79 | 222 | 0.0 | 0.0 | 0.00 | 0.00 | 0.00 | 90 | 4252.9 |
| 20260903033045 | 80 | 216 | 0.0 | 0.0 | 0.00 | 0.00 | 0.00 | 90 | 4252.9 |
| 20260903032042 | 80 | 222 | 0.0 | 1.0 | 0.00 | 0.00 | 0.00 | 88 | 4253.0 |
| 20260903031043 | 80 | 224 | 1.0 | 1.0 | 0.00 | 0.00 | 0.00 | 88 | 4253.0 |
| 20260903030040 | 81 | 214 | 0.0 | 1.0 | 0.00 | 0.00 | 0.00 | 87 | 4253.0 |
| 20260903025037 | 81 | 216 | 1.0 | 1.0 | 0.00 | 0.00 | 0.00 | 87 | 4252.8 |
| 20260903024037 | 81 | 222 | 1.0 | 1.0 | 0.00 | 0.00 | 0.00 | 85 | 4253.1 |
| 20260903023034 | 81 | 209 | 1.0 | 1.0 | 0.00 | 0.00 | 0.00 | 85 | 4252.7 |
| 20260903022031 | 82 | 213 | 1.0 | 1.0 | 0.00 | 0.00 | 0.00 | 84 | 4252.8 |
| 20260903021027 | 83 | 217 | 1.0 | 1.0 | 0.00 | 0.00 | 0.00 | 82 | 4252.7 |
| 20260903020023 | 84 | 233 | 1.0 | 1.0 | 0.00 | 0.00 | 0.00 | 80 | 4252.7 |
| 20260903015020 | 85 | 192 | 0.0 | 0.0 | 0.00 | 0.00 | 0.00 | 78 | 4252.6 |
| 20260903014019 | 84 | 216 | 0.0 | 1.0 | 0.00 | 0.00 | 0.00 | 78 | 4252.5 |
| 20260903013019 | 85 | 232 | 1.0 | 2.0 | 0.00 | 0.00 | 0.00 | 79 | 4252.4 |
| 20260903012018 | 85 | 214 | 1.0 | 1.0 | 0.00 | 0.00 | 0.00 | 77 | 4252.3 |
| 20260903011014 | 86 | 232 | 1.0 | 1.0 | 0.00 | 0.00 | 0.00 | 74 | 4252.3 |
| 20260903010013 | 86 | 228 | 1.0 | 1.0 | 0.00 | 0.00 | 0.00 | 74 | 4251.9 |
| 20260903005009 | 88 | 240 | 1.0 | 1.0 | 0.00 | 0.00 | 0.00 | 71 | 4251.9 |
| 20260903004005 | 88 | 246 | 0.0 | 1.0 | 0.00 | 0.00 | 0.00 | 70 | 4251.8 |
| 20260903003001 | 89 | 231 | 1.0 | 1.0 | 0.00 | 0.00 | 0.00 | 69 | 4252.0 |
| 20260903002000 | 90 | 233 | 0.0 | 0.0 | 0.00 | 0.00 | 0.00 | 67 | 4251.8 |
| 20260903000955 | 91 | 188 | 0.0 | 0.0 | 0.00 | 0.00 | 0.00 | 66 | 4251.9 |
| 20260902235955 | 91 | 69 | 0.0 | 1.0 | 0.00 | 0.00 | 0.00 | 63 | 4252.0 |
| 20260902234950 | 91 | 238 | 1.0 | 1.0 | 0.00 | 0.00 | 0.00 | 64 | 4251.8 |
| 20260902233950 | 92 | 87 | 0.0 | 0.0 | 0.00 | 0.00 | 0.00 | 62 | 4251.7 |
| 20260902232950 | 92 | 72 | 1.0 | 1.0 | 0.00 | 0.00 | 0.00 | 64 | 4252.0 |
| 20260902231950 | 93 | 63 | 0.0 | 1.0 | 0.00 | 0.00 | 0.00 | 61 | 4251.9 |
| 20260902230945 | 94 | 49 | 0.0 | 1.0 | 0.00 | 0.00 | 0.00 | 58 | 4252.0 |
| 20260902225944 | 95 | 74 | 0.0 | 1.0 | 0.00 | 0.00 | 0.00 | 59 | 4252.1 |
| 20260902224939 | 97 | 43 | 1.0 | 1.0 | 0.00 | 0.00 | 0.00 | 55 | 4252.0 |
| 20260902223936 | 95 | 58 | 0.0 | 1.0 | 0.00 | 0.00 | 0.00 | 57 | 4252.0 |
| 20260902222935 | 96 | 280 | 0.0 | 0.0 | 0.00 | 0.00 | 0.00 | 57 | 4252.0 |
| 20260902221934 | 95 | 46 | 0.0 | 1.0 | 0.00 | 0.00 | 0.00 | 61 | 4252.3 |
| 20260902220929 | 94 | 13 | 1.0 | 1.0 | 0.00 | 0.00 | 0.00 | 62 | 4252.0 |
| 20260902215924 | 94 | 336 | 2.0 | 2.0 | 0.00 | 0.00 | 0.00 | 63 | 4252.0 |
| 20260902214921 | 95 | 5 | 1.0 | 1.0 | 0.00 | 0.00 | 0.00 | 65 | 4251.9 |
| 20260902213920 | 95 | 356 | 2.0 | 2.0 | 0.00 | 0.00 | 0.00 | 65 | 4252.4 |
| 20260902212921 | 96 | 10 | 2.0 | 2.0 | 0.00 | 0.00 | 0.00 | 62 | 4252.4 |
| 20260902211919 | 96 | 51 | 1.0 | 1.0 | 0.00 | 0.00 | 0.00 | 59 | 4252.5 |
| 20260902210916 | 96 | 358 | 3.0 | 3.0 | 0.00 | 0.00 | 0.00 | 60 | 4252.3 |
| 20260902205914 | 96 | 332 | 2.0 | 2.0 | 0.00 | 0.00 | 0.00 | 58 | 4252.6 |
| 20260902204911 | 94 | 41 | 1.0 | 2.0 | 0.00 | 0.00 | 0.00 | 60 | 4252.4 |
| 20260902203906 | 94 | 41 | 0.0 | 1.0 | 0.00 | 0.00 | 0.00 | 56 | 4252.5 |
| 20260902202901 | 94 | 11 | 1.0 | 2.0 | 0.00 | 0.00 | 0.00 | 66 | 4252.8 |
| 20260902201859 | 97 | 0 | 2.0 | 2.0 | 0.00 | 0.00 | 0.00 | 57 | 4252.9 |
| 20260902200859 | 96 | 354 | 3.0 | 3.0 | 0.00 | 0.00 | 0.00 | 59 | 4253.1 |
| 20260902195856 | 96 | 39 | 3.0 | 3.0 | 0.00 | 0.00 | 0.00 | 60 | 4252.9 |
| 20260902194850 | 96 | 6 | 3.0 | 3.0 | 0.00 | 0.00 | 0.00 | 55 | 4253.2 |
| 20260902193845 | 97 | 342 | 1.0 | 1.0 | 0.00 | 0.00 | 0.00 | 53 | 4253.4 |
| 20260902192846 | 96 | 342 | 2.0 | 2.0 | 0.00 | 0.00 | 0.00 | 59 | 4253.5 |
| 20260902191844 | 96 | 348 | 2.0 | 2.0 | 0.00 | 0.00 | 0.00 | 54 | 4253.8 |
| 20260902190841 | 97 | 340 | 2.0 | 2.0 | 0.00 | 0.00 | 0.00 | 56 | 4253.7 |
| 20260902185837 | 96 | 351 | 3.0 | 3.0 | 0.00 | 0.00 | 0.00 | 58 | 4253.8 |
| 20260902184834 | 94 | 26 | 0.0 | 0.0 | 0.00 | 0.00 | 0.00 | 55 | 4253.7 |
| 20260902183830 | 95 | 0 | 2.0 | 2.0 | 0.00 | 0.00 | 0.00 | 57 | 4254.2 |
| 20260902182828 | 96 | 352 | 3.0 | 3.0 | 0.00 | 0.00 | 0.00 | 58 | 4254.1 |
| 20260902181826 | 96 | 350 | 2.0 | 2.0 | 0.00 | 0.00 | 0.00 | 57 | 4254.3 |
| 20260902180826 | 95 | 3 | 3.0 | 3.0 | 0.00 | 0.00 | 0.00 | 59 | 4254.4 |
| 20260902175824 | 95 | 6 | 2.0 | 2.0 | 0.00 | 0.00 | 0.00 | 56 | 4254.4 |
| 20260902174820 | 95 | 6 | 2.0 | 2.0 | 0.00 | 0.00 | 0.00 | 58 | 4254.6 |
| 20260902173818 | 95 | 356 | 2.0 | 2.0 | 0.00 | 0.00 | 0.00 | 58 | 4254.7 |
| 20260902172818 | 93 | 19 | 1.0 | 1.0 | 0.00 | 0.00 | 0.00 | 61 | 4255.0 |
| 20260902171814 | 94 | 13 | 2.0 | 2.0 | 0.00 | 0.00 | 0.00 | 61 | 4255.0 |
| 20260902170811 | 93 | 357 | 1.0 | 2.0 | 0.00 | 0.00 | 0.00 | 64 | 4255.2 |
| 20260902165808 | 94 | 4 | 2.0 | 2.0 | 0.00 | 0.00 | 0.00 | 66 | 4255.4 |
| 20260902164808 | 93 | 16 | 2.0 | 2.0 | 0.00 | 0.00 | 0.00 | 67 | 4255.6 |
| 20260902163803 | 93 | 6 | 3.0 | 3.0 | 0.00 | 0.00 | 0.00 | 71 | 4255.6 |
| 20260902162801 | 92 | 0 | 2.0 | 2.0 | 0.00 | 0.00 | 0.00 | 71 | 4255.7 |
| 20260902161756 | 91 | 357 | 3.0 | 3.0 | 0.00 | 0.00 | 0.00 | 75 | 4256.0 |
| 20260902160754 | 91 | 10 | 3.0 | 3.0 | 0.00 | 0.00 | 0.00 | 74 | 4256.0 |
| 20260902155752 | 90 | 20 | 3.0 | 3.0 | 0.00 | 0.00 | 0.00 | 77 | 4255.9 |
| 20260902154752 | 89 | 3 | 2.0 | 2.0 | 0.00 | 0.00 | 0.00 | 76 | 4256.1 |
| 20260902153752 | 89 | 7 | 3.0 | 3.0 | 0.00 | 0.00 | 0.00 | 77 | 4256.1 |
| 20260902152748 | 88 | 12 | 1.0 | 2.0 | 0.00 | 0.00 | 0.00 | 77 | 4256.2 |
| 20260902151744 | 88 | 12 | 1.0 | 2.0 | 0.00 | 0.00 | 0.00 | 77 | 4256.0 |
| 20260902150739 | 87 | 12 | 2.0 | 2.0 | 0.00 | 0.00 | 0.00 | 78 | 4256.1 |
| 20260902145735 | 86 | 12 | 0.0 | 1.0 | 0.00 | 0.00 | 0.00 | 81 | 4255.8 |
| 20260902144731 | 85 | 24 | 2.0 | 2.0 | 0.00 | 0.00 | 0.00 | 82 | 4255.9 |
| 20260902143728 | 84 | 29 | 3.0 | 3.0 | 0.00 | 0.00 | 0.00 | 84 | 4256.0 |
| 20260902142725 | 84 | 15 | 2.0 | 2.0 | 0.00 | 0.00 | 0.00 | 85 | 4256.1 |
| 20260902141721 | 83 | 26 | 1.0 | 2.0 | 0.00 | 0.00 | 0.00 | 86 | 4255.9 |
| 20260902140718 | 82 | 20 | 2.0 | 2.0 | 0.00 | 0.00 | 0.00 | 89 | 4255.8 |
| 20260902135717 | 81 | 19 | 1.0 | 1.0 | 0.00 | 0.00 | 0.00 | 92 | 4256.2 |
| 20260902134712 | 80 | 9 | 2.0 | 2.0 | 0.00 | 0.00 | 0.00 | 93 | 4256.0 |
| 20260902133708 | 80 | 6 | 2.0 | 2.0 | 0.00 | 0.00 | 0.00 | 94 | 4255.8 |
| 20260902132703 | 79 | 15 | 1.0 | 2.0 | 0.00 | 0.00 | 0.00 | 96 | 4255.8 |
| 20260902131700 | 78 | 350 | 2.0 | 2.0 | 0.00 | 0.00 | 0.00 | 97 | 4255.6 |
| 20260902130657 | 78 | 356 | 1.0 | 1.0 | 0.00 | 0.00 | 0.00 | 98 | 4255.8 |
| 20260902125653 | 77 | 359 | 2.0 | 2.0 | 0.00 | 0.00 | 0.00 | 97 | 4255.9 |
| 20260902124651 | 77 | 352 | 2.0 | 2.0 | 0.00 | 0.00 | 0.00 | 98 | 4256.0 |
| 20260902123647 | 77 | 348 | 2.0 | 2.0 | 0.00 | 0.00 | 0.00 | 99 | 4255.8 |
| 20260902122648 | 75 | 222 | 0.0 | 0.0 | 0.00 | 0.00 | 0.00 | 99 | 4255.8 |
| 20260902121644 | 76 | 240 | 1.0 | 1.0 | 0.00 | 0.00 | 0.00 | 99 | 4255.6 |
| 20260902120641 | 76 | 351 | 2.0 | 3.0 | 0.00 | 0.00 | 0.00 | 99 | 4255.5 |
| 20260902115637 | 74 | 265 | 0.0 | 0.0 | 0.00 | 0.00 | 0.00 | 99 | 4255.4 |
| 20260902114635 | 73 | 194 | 0.0 | 0.0 | 0.00 | 0.00 | 0.00 | 99 | 4255.1 |
| 20260902113630 | 72 | 213 | 0.0 | 0.0 | 0.00 | 0.00 | 0.00 | 99 | 4255.0 |
| 20260902112626 | 72 | 222 | 1.0 | 1.0 | 0.00 | 0.00 | 0.00 | 99 | 4255.1 |
| 20260902111625 | 72 | 220 | 1.0 | 1.0 | 0.00 | 0.00 | 0.00 | 99 | 4254.9 |
| 20260902110622 | 72 | 233 | 2.0 | 2.0 | 0.00 | 0.00 | 0.00 | 99 | 4254.6 |
| 20260902105617 | 72 | 218 | 1.0 | 2.0 | 0.00 | 0.00 | 0.00 | 99 | 4254.7 |
| 20260902104613 | 72 | 214 | 1.0 | 2.0 | 0.00 | 0.00 | 0.00 | 99 | 4254.8 |
| 20260902103608 | 71 | 217 | 1.0 | 2.0 | 0.00 | 0.00 | 0.00 | 99 | 4254.2 |